Date String (YYYY-MM-DD hh:mm:ss) UTC,Instrument flags,absolute air pressure of the measurement (hPa),sample flow rate (lpm),inlet stack bypass flow (lpm),air temperature of the measurement (°C),ambient temperature measured by the external sensor (°C),aerosol sample conditioner tube jacket temperature (°C),OPC LED temperature (°C),internal box temperature (°C),relative humidity of the measurement (%),span deviation,mass concentration of particles derived from Lorenz-Mie calculation of OPC scattering (μg/m³),mass concentration of particles derived from Lorenz-Mie calculation of OPC scattering (μg/m³),mass concentration of particles derived from Lorenz-Mie calculation of OPC scattering (μg/m³)
DateTimeUTC,F1_M11,P_M11,Q1_M11,Q2_M11,T1_M11,T2_M11,T3_M11,T4_M11,T5_M11,U1_M11,ZSPAN_M11,X0_M11,X2_M11,X1_M11
2023-11-19 00:00:00,SystemResetWarning,0825.5,5.00,000.00,025.8,024.9,000.0,034.0,027.3,15.3,0002.1,0022.60,0007.40,0006.10
2023-11-19 00:01:00,SystemResetWarning,0825.5,5.01,000.00,025.8,024.9,000.0,034.0,027.3,15.2,0002.0,0022.14,0007.39,0006.11
2023-11-19 00:02:00,SystemResetWarning,0825.6,5.01,000.00,025.9,025.0,000.0,034.0,027.4,15.2,0002.5,0022.40,0007.46,0006.12
2023-11-19 00:03:00,SystemResetWarning,0825.6,5.00,000.00,025.9,025.0,000.0,034.0,027.4,15.2,0002.8,0022.74,0007.44,0006.14
2023-11-19 00:04:00,SystemResetWarning,0825.6,5.00,000.00,025.9,025.1,000.0,034.0,027.4,15.1,0002.6,0021.50,0007.39,0006.07
2023-11-19 00:05:00,SystemResetWarning,0825.6,5.00,000.00,025.9,025.1,000.0,034.1,027.4,15.1,0002.4,0020.48,0007.36,0006.01
2023-11-19 00:06:00,SystemResetWarning,0825.6,5.01,000.00,026.0,025.1,000.0,034.1,027.5,15.1,0002.5,0019.78,0007.33,0005.97
2023-11-19 00:07:00,SystemResetWarning,0825.6,5.00,000.00,026.0,025.2,000.0,034.1,027.5,15.1,0002.9,0019.33,0007.31,0005.95
2023-11-19 00:08:00,SystemResetWarning,0825.6,5.00,000.00,026.0,025.2,000.0,034.1,027.5,15.0,0002.9,0020.53,0007.30,0005.94
2023-11-19 00:09:00,SystemResetWarning,0825.6,4.99,000.00,026.0,025.2,000.0,034.1,027.5,15.0,0002.8,0020.94,0007.28,0005.94
2023-11-19 00:10:00,SystemResetWarning,0825.6,4.99,000.00,026.0,025.2,000.0,034.2,027.5,14.9,0003.1,0020.51,0007.27,0005.94
2023-11-19 00:11:00,SystemResetWarning,0825.6,4.99,000.00,026.1,025.2,000.0,034.2,027.5,14.9,0003.8,0020.24,0007.27,0005.94
2023-11-19 00:12:00,SystemResetWarning,0825.6,5.00,000.00,026.1,024.3,000.0,034.2,027.5,15.0,0004.0,0019.98,0007.28,0005.92
2023-11-19 00:13:00,SystemResetWarning,0825.6,5.01,000.00,025.9,022.4,000.0,034.2,027.1,15.1,0004.1,0018.74,0007.21,0005.91
2023-11-19 00:14:00,SystemResetWarning,0825.5,5.01,000.00,025.8,022.0,000.0,034.1,026.8,15.2,0003.8,0018.33,0007.20,0005.89
2023-11-19 00:15:00,SystemResetWarning,0825.5,5.01,000.00,025.6,022.2,000.0,034.1,026.5,15.3,0004.0,0018.49,0007.15,0005.87
2023-11-19 00:16:00,SystemResetWarning,0825.5,5.00,000.00,025.5,022.7,000.0,034.0,026.5,15.4,0003.9,0018.66,0007.13,0005.84
2023-11-19 00:17:00,SystemResetWarning,0825.5,5.01,000.00,025.5,023.0,000.0,034.0,026.6,15.4,0003.7,0019.96,0007.12,0005.83
2023-11-19 00:18:00,SystemResetWarning,0825.5,5.00,000.00,025.5,023.4,000.0,033.9,026.7,15.4,0003.5,0020.57,0007.05,0005.82
2023-11-19 00:19:00,SystemResetWarning,0825.5,5.00,000.00,025.5,023.6,000.0,033.9,026.8,15.4,0003.8,0020.61,0007.11,0005.81
2023-11-19 00:20:00,SystemResetWarning,0825.5,5.00,000.00,025.5,023.8,000.0,033.9,026.9,15.4,0004.1,0018.96,0007.12,0005.80
2023-11-19 00:21:00,SystemResetWarning,0825.5,5.00,000.00,025.5,024.0,000.0,033.9,026.9,15.4,0004.0,0020.66,0007.13,0005.81
2023-11-19 00:22:00,SystemResetWarning,0825.5,5.00,000.00,025.5,024.2,000.0,033.9,026.9,15.3,0003.9,0020.55,0007.11,0005.81
2023-11-19 00:23:00,SystemResetWarning,0825.5,4.99,000.00,025.6,024.3,000.0,033.9,027.0,15.3,0003.9,0020.35,0007.08,0005.81
2023-11-19 00:24:00,SystemResetWarning,0825.5,5.00,000.00,025.6,024.4,000.0,033.8,027.0,15.3,0003.9,0020.78,0007.05,0005.81
2023-11-19 00:25:00,SystemResetWarning,0825.5,4.99,000.00,025.6,024.4,000.0,033.8,027.0,15.3,0004.1,0020.90,0007.06,0005.82
2023-11-19 00:26:00,SystemResetWarning,0825.5,5.01,000.00,025.6,024.5,000.0,033.9,027.1,15.3,0004.0,0020.69,0007.03,0005.82
2023-11-19 00:27:00,SystemResetWarning,0825.5,5.00,000.00,025.6,024.6,000.0,033.9,027.1,15.3,0003.9,0021.27,0007.06,0005.85
2023-11-19 00:28:00,SystemResetWarning,0825.5,5.00,000.00,025.7,024.6,000.0,033.9,027.1,15.2,0004.4,0020.87,0007.04,0005.88
2023-11-19 00:29:00,SystemResetWarning,0825.5,5.01,000.00,025.7,024.7,000.0,033.9,027.1,15.2,0004.5,0020.16,0007.08,0005.91
2023-11-19 00:30:00,SystemResetWarning,0825.6,5.01,000.00,025.7,024.7,000.0,033.9,027.2,15.2,0003.9,0020.02,0007.08,0005.93
2023-11-19 00:31:00,SystemResetWarning,0825.5,4.99,000.00,025.7,024.8,000.0,033.9,027.2,15.2,0003.7,0020.06,0007.04,0005.93
2023-11-19 00:32:00,SystemResetWarning,0825.6,4.99,000.00,025.7,024.8,000.0,033.9,027.2,15.2,0003.2,0018.44,0007.05,0005.95
2023-11-19 00:33:00,SystemResetWarning,0825.6,4.99,000.00,025.8,024.8,000.0,033.9,027.2,15.2,0003.3,0018.61,0007.11,0005.98
2023-11-19 00:34:00,SystemResetWarning,0825.6,5.00,000.00,025.8,024.9,000.0,033.9,027.3,15.2,0003.3,0018.62,0007.17,0006.01
2023-11-19 00:35:00,SystemResetWarning,0825.5,5.01,000.00,025.8,024.9,000.0,034.0,027.3,15.2,0003.1,0018.89,0007.24,0006.05
2023-11-19 00:36:00,SystemResetWarning,0825.5,5.00,000.00,025.8,024.9,000.0,034.0,027.3,15.1,0002.9,0019.50,0007.35,0006.10
2023-11-19 00:37:00,SystemResetWarning,0825.5,5.00,000.00,025.8,024.9,000.0,034.0,027.3,15.1,0003.8,0019.77,0007.45,0006.17
2023-11-19 00:38:00,SystemResetWarning,0825.5,5.00,000.00,025.9,024.9,000.0,034.0,027.3,15.0,0004.1,0019.53,0007.46,0006.19
2023-11-19 00:39:00,SystemResetWarning,0825.5,5.01,000.00,025.9,024.9,000.0,034.0,027.4,15.0,0003.6,0019.62,0007.52,0006.22
2023-11-19 00:40:00,SystemResetWarning,0825.6,5.00,000.00,025.9,025.0,000.0,034.1,027.4,14.9,0003.2,0020.33,0007.60,0006.27
2023-11-19 00:41:00,SystemResetWarning,0825.6,5.00,000.00,025.9,025.0,000.0,034.1,027.4,14.9,0003.3,0020.93,0007.69,0006.32
2023-11-19 00:42:00,SystemResetWarning,0825.6,4.99,000.00,025.9,025.0,000.0,034.1,027.4,14.9,0003.2,0021.25,0007.71,0006.35
2023-11-19 00:43:00,SystemResetWarning,0825.6,5.00,000.00,025.9,025.0,000.0,034.1,027.4,14.9,0003.6,0021.56,0007.63,0006.33
2023-11-19 00:44:00,SystemResetWarning,0825.6,5.00,000.00,025.9,025.0,000.0,034.1,027.4,14.9,0003.6,0020.92,0007.55,0006.29
2023-11-19 00:45:00,SystemResetWarning,0825.6,4.99,000.00,026.0,025.0,000.0,034.1,027.4,14.9,0003.5,0020.97,0007.47,0006.24
2023-11-19 00:46:00,SystemResetWarning,0825.6,5.01,000.00,026.0,025.0,000.0,034.1,027.5,14.8,0003.5,0020.13,0007.36,0006.17
2023-11-19 00:47:00,SystemResetWarning,0825.6,5.01,000.00,026.0,025.0,000.0,034.1,027.5,14.8,0003.4,0019.68,0007.22,0006.09
2023-11-19 00:48:00,SystemResetWarning,0825.5,5.01,000.00,026.0,025.0,000.0,034.2,027.5,14.8,0003.1,0019.51,0007.10,0006.00
2023-11-19 00:49:00,SystemResetWarning,0825.6,5.00,000.00,026.0,025.1,000.0,034.2,027.5,14.8,0002.7,0019.07,0006.99,0005.92
2023-11-19 00:50:00,SystemResetWarning,0825.5,5.00,000.00,026.0,025.1,000.0,034.2,027.5,14.8,0002.4,0018.12,0006.90,0005.86
2023-11-19 00:51:00,SystemResetWarning,0825.5,4.99,000.00,026.0,024.9,000.0,034.2,027.5,14.8,0002.8,0017.15,0006.78,0005.76
2023-11-19 00:52:00,SystemResetWarning,0825.4,5.00,000.00,026.0,023.0,000.0,034.2,027.2,14.8,0002.7,0016.74,0006.65,0005.67
2023-11-19 00:53:00,SystemResetWarning,0825.4,5.00,000.00,025.8,021.9,000.0,034.1,026.9,14.8,0002.9,0016.30,0006.54,0005.60
2023-11-19 00:54:00,SystemResetWarning,0825.5,5.02,000.00,025.7,021.9,000.0,034.1,026.5,15.0,0003.2,0016.06,0006.56,0005.56
2023-11-19 00:55:00,SystemResetWarning,0825.4,5.00,000.00,025.5,022.3,000.0,034.0,026.3,15.1,0003.4,0015.70,0006.59,0005.56
2023-11-19 00:56:00,SystemResetWarning,0825.4,4.98,000.00,025.4,022.7,000.0,034.0,026.4,15.2,0003.4,0015.64,0006.61,0005.55
2023-11-19 00:57:00,SystemResetWarning,0825.4,5.00,000.00,025.4,023.0,000.0,033.9,026.6,15.2,0003.3,0015.63,0006.57,0005.54
2023-11-19 00:58:00,SystemResetWarning,0825.4,5.02,000.00,025.4,023.4,000.0,033.9,026.6,15.2,0003.7,0015.94,0006.54,0005.53
2023-11-19 00:59:00,SystemResetWarning,0825.4,4.99,000.00,025.4,023.6,000.0,033.9,026.7,15.2,0003.7,0015.11,0006.47,0005.51
